Location: Ferris
(32.5340°N, 96.6656°W)
Time: 23:56:19
(UTC+00:00)

Cosmos 1354 Rocket - Pass Details

Date: 21 May 2026
Orbit: 761 x 778 km, 74.0° (Epoch: 7 June)

Event Time Altitude Azimuth Distance (km) Brightness Sun altitude
Rises 03:22:16 0° 352° (N) 3,230 8.0 -21.8°
Reaches altitude 10° 03:24:48 10° 0° (N) 2,299 7.0 -22.2°
Maximum altitude 03:29:39 38° 69° (ENE) 1,142 4.7 -22.9°
Enters shadow 03:29:56 38° 77° (ENE) 1,147 4.6 -23.0°
